Morris, IL

12:40 PM CDT on May 25, 2017 (GMT -0500)
Morris

Weather History for KC09 - March, 2013

Change the Weather History Date:

Saturday, March 23, 2013

  Actual Average (KARR) Record (KARR)
Temperature  
Mean Temperature 34 °F -  
Max Temperature 45 °F 48 °F 69 °F (2012)
Min Temperature 24 °F 29 °F 18 °F (1999)
Degree Days  
Heating Degree Days 30    
Moisture  
Dew Point 24 °F    
Average Humidity 67    
Maximum Humidity 90    
Minimum Humidity 38    
Precipitation  
Precipitation 0.00 in - - ()
Sea Level Pressure  
Sea Level Pressure 30.05 in    
Wind  
Wind Speed 2 mph (NE)    
Max Wind Speed 14 mph    
Max Gust Speed 20 mph    
Visibility 10 miles    
Events      
Averages and records for this station are not official NWS values.
T = Trace of Precipitation, MM = Missing Value Source: NWS Daily Summary

Daily Weather History Graph

Daily Weather History Graph

Search for Another Location

Airport or City:

Trip Planner

Search our weather history database for the weather conditions in past years. The results will help you decide how hot, cold, wet, or windy it might be!

Date:

Astronomy

Mar. 23, 2013 Rise Set
Actual Time 6:51 AM CDT 7:09 PM CDT
Civil Twilight 6:23 AM CDT 7:37 PM CDT
Nautical Twilight 5:51 AM CDT 8:09 PM CDT
Astronomical Twilight 5:18 AM CDT 8:42 PM CDT
Moon 3:33 PM CDT (3/23) 4:30 AM CDT (3/23)
Length of Visible Light 13h 13m
Length of Day
12h 17m
Waxing Gibbous, 85% of the Moon is Illuminated
Mar 23
Waxing Gibbous
Mar 27
Full
Apr 2
Last Quarter
Apr 10
New
Apr 18
First Quarter

Hourly Weather History & Observations

Time (CDT) Temp. Windchill Dew Point Humidity Pressure Visibility Wind Dir Wind Speed Gust Speed Precip Events Conditions
12:15 AM 31.1 °F - 24.3 °F 76% 30.05 in 10.0 mi Calm Calm - N/A   Overcast
12:35 AM 31.1 °F - 23.9 °F 75% 30.06 in 10.0 mi Calm Calm - N/A   Overcast
12:55 AM 31.1 °F - 24.8 °F 77% 30.06 in 10.0 mi Calm Calm - N/A   Overcast
1:15 AM 30.6 °F - 24.6 °F 79% 30.06 in 10.0 mi Calm Calm - N/A   Overcast
1:35 AM 30.7 °F - 24.8 °F 79% 30.06 in 10.0 mi Calm Calm - N/A   Overcast
1:55 AM 30.6 °F - 24.4 °F 78% 30.06 in 10.0 mi Calm Calm - N/A   Overcast
2:15 AM 30.6 °F - 24.8 °F 79% 30.06 in 10.0 mi Calm Calm - N/A   Overcast
2:35 AM 30.0 °F - 24.6 °F 80% 30.06 in 10.0 mi Calm Calm - N/A   Overcast
2:55 AM 28.8 °F - 24.6 °F 84% 30.06 in 10.0 mi Calm Calm - N/A   Overcast
3:15 AM 29.3 °F - 23.9 °F 80% 30.06 in 10.0 mi Calm Calm - N/A   Overcast
3:35 AM 28.8 °F - 24.8 °F 85% 30.06 in 10.0 mi Calm Calm - N/A   Overcast
3:55 AM 28.4 °F - 25.7 °F 90% 30.05 in 10.0 mi Calm Calm - N/A   Overcast
4:15 AM 28.4 °F - 25.5 °F 89% 30.06 in 10.0 mi Calm Calm - N/A   Overcast
4:35 AM 28.6 °F - 24.6 °F 85% 30.04 in 10.0 mi Calm Calm - N/A   Overcast
4:55 AM 28.6 °F - 24.6 °F 85% 30.05 in 10.0 mi Calm Calm - N/A   Mostly Cloudy
5:15 AM 27.9 °F - 24.4 °F 87% 30.06 in 10.0 mi Calm Calm - N/A   Scattered Clouds
5:35 AM 27.5 °F - 23.9 °F 86% 30.06 in 10.0 mi Calm Calm - N/A   Clear
5:55 AM 27.5 °F - 23.9 °F 86% 30.07 in 10.0 mi Calm Calm - N/A   Clear
6:15 AM 24.8 °F - 21.2 °F 86% 30.08 in 10.0 mi Calm Calm - N/A   Clear
6:35 AM 27.1 °F - 23.2 °F 85% 30.07 in 10.0 mi Calm Calm - N/A   Clear
6:55 AM 26.6 °F - 23.0 °F 86% 30.08 in 10.0 mi Calm Calm - N/A   Clear
7:15 AM 25.9 °F - 23.2 °F 90% 30.08 in 10.0 mi Calm Calm - N/A   Clear
7:35 AM 27.1 °F - 23.9 °F 88% 30.08 in 10.0 mi Calm Calm - N/A   Clear
7:55 AM 28.9 °F - 25.5 °F 87% 30.09 in 10.0 mi Calm Calm - N/A   Clear
8:15 AM 30.7 °F - 26.2 °F 83% 30.09 in 10.0 mi Calm Calm - N/A   Clear
8:35 AM 31.8 °F - 25.9 °F 79% 30.10 in 10.0 mi Calm Calm - N/A   Clear
8:55 AM 32.2 °F 28.9 °F 25.5 °F 76% 30.11 in 10.0 mi North 3.5 mph - N/A   Clear
9:15 AM 33.4 °F 30.4 °F 25.5 °F 73% 30.12 in 10.0 mi NNE 3.5 mph - N/A   Clear
9:35 AM 34.2 °F 30.0 °F 24.8 °F 69% 30.12 in 10.0 mi NNE 4.6 mph - N/A   Clear
9:55 AM 35.6 °F 32.8 °F 25.9 °F 68% 30.12 in 10.0 mi NE 3.5 mph - N/A   Clear
10:15 AM 36.1 °F 31.4 °F 25.0 °F 64% 30.11 in 10.0 mi NE 5.8 mph - N/A   Clear
10:35 AM 37.4 °F 33.8 °F 24.8 °F 60% 30.11 in 10.0 mi NNE 4.6 mph - N/A   Clear
10:55 AM 38.1 °F 35.7 °F 24.6 °F 58% 30.11 in 10.0 mi NE 3.5 mph - N/A   Clear
11:15 AM 38.7 °F 34.3 °F 24.1 °F 56% 30.11 in 10.0 mi ENE 5.8 mph - N/A   Clear
11:35 AM 37.6 °F 34.0 °F 23.7 °F 57% 30.11 in 10.0 mi North 4.6 mph - N/A   Scattered Clouds
11:55 AM 39.4 °F 37.2 °F 23.5 °F 53% 30.10 in 10.0 mi North 3.5 mph - N/A   Clear
12:15 PM 40.3 °F 38.2 °F 23.2 °F 51% 30.10 in 10.0 mi NE 3.5 mph - N/A   Clear
12:35 PM 40.6 °F 36.7 °F 22.8 °F 49% 30.09 in 10.0 mi NE 5.8 mph - N/A   Clear
12:55 PM 40.8 °F 37.8 °F 21.9 °F 47% 30.09 in 10.0 mi NNE 4.6 mph - N/A   Clear
1:15 PM 41.5 °F 37.8 °F 22.8 °F 47% 30.08 in 10.0 mi North 5.8 mph - N/A   Clear
1:35 PM 42.3 °F 38.6 °F 23.4 °F 47% 30.07 in 10.0 mi NNE 5.8 mph - N/A   Clear
1:55 PM 42.6 °F 39.0 °F 22.6 °F 45% 30.07 in 10.0 mi North 5.8 mph - N/A   Clear
2:15 PM 43.7 °F 40.3 °F 23.0 °F 44% 30.06 in 10.0 mi NE 5.8 mph - N/A   Clear
2:35 PM 43.9 °F 40.5 °F 22.5 °F 43% 30.06 in 10.0 mi ENE 5.8 mph - N/A   Clear
2:55 PM 43.9 °F - 21.9 °F 42% 30.06 in 10.0 mi Calm Calm - N/A   Clear
3:15 PM 44.8 °F 43.3 °F 22.3 °F 41% 30.05 in 10.0 mi ENE 3.5 mph - N/A   Clear
3:35 PM 43.9 °F 42.3 °F 21.4 °F 41% 30.05 in 10.0 mi NNW 3.5 mph - N/A   Clear
3:55 PM 44.1 °F 41.5 °F 22.1 °F 42% 30.04 in 10.0 mi North 4.6 mph - N/A   Clear
4:15 PM 45.1 °F 42.0 °F 21.7 °F 40% 30.03 in 10.0 mi ENE 5.8 mph - N/A   Clear
4:35 PM 45.0 °F 42.6 °F 21.4 °F 39% 30.02 in 10.0 mi North 4.6 mph - N/A   Clear
4:55 PM 44.6 °F 43.1 °F 20.5 °F 38% 30.01 in 10.0 mi NNE 3.5 mph - N/A   Clear
5:15 PM 45.1 °F 41.4 °F 21.2 °F 39% 30.00 in 10.0 mi NNE 6.9 mph - N/A   Clear
5:35 PM 44.6 °F 40.7 °F 20.5 °F 38% 29.99 in 10.0 mi ENE 6.9 mph - N/A   Clear
5:55 PM 41.7 °F 34.4 °F 24.8 °F 51% 29.99 in 10.0 mi East 13.8 mph 19.6 mph N/A   Clear
6:15 PM 39.9 °F 32.1 °F 24.6 °F 54% 30.00 in 10.0 mi ENE 13.8 mph - N/A   Clear
6:35 PM 39.2 °F 32.0 °F 24.8 °F 56% 29.99 in 10.0 mi ENE 11.5 mph 19.6 mph N/A   Clear
6:55 PM 37.4 °F 30.3 °F 24.8 °F 60% 30.01 in 10.0 mi ENE 10.4 mph - N/A   Clear
7:15 PM 34.7 °F 27.5 °F 24.4 °F 66% 30.03 in 10.0 mi ENE 9.2 mph - N/A   Clear
7:35 PM 34.0 °F 26.0 °F 24.1 °F 67% 30.02 in 10.0 mi ENE 10.4 mph - N/A   Clear
7:55 PM 33.4 °F 25.4 °F 24.6 °F 70% 30.01 in 10.0 mi ENE 10.4 mph - N/A   Clear
8:15 PM 33.1 °F 25.5 °F 24.6 °F 71% 30.02 in 10.0 mi ENE 9.2 mph - N/A   Clear
8:35 PM 32.4 °F 25.3 °F 24.4 °F 73% 30.02 in 10.0 mi ENE 8.1 mph - N/A   Clear
8:55 PM 32.9 °F 25.9 °F 24.8 °F 72% 30.02 in 10.0 mi ENE 8.1 mph - N/A   Clear
9:15 PM 32.9 °F 25.3 °F 24.8 °F 72% 30.02 in 10.0 mi ENE 9.2 mph - N/A   Clear
9:35 PM 32.0 °F 25.6 °F 24.8 °F 75% 30.02 in 10.0 mi ENE 6.9 mph 16.1 mph N/A   Clear
9:55 PM 32.5 °F 27.1 °F 25.3 °F 75% 30.01 in 10.0 mi NE 5.8 mph - N/A   Clear
10:15 PM 32.4 °F 26.0 °F 24.8 °F 74% 30.01 in 10.0 mi ENE 6.9 mph - N/A   Clear
10:35 PM 32.5 °F 24.8 °F 24.8 °F 73% 30.01 in 10.0 mi ENE 9.2 mph - N/A   Clear
10:55 PM 32.5 °F 25.5 °F 25.0 °F 74% 30.01 in 10.0 mi ENE 8.1 mph - N/A   Clear
11:15 PM 32.0 °F 28.7 °F 25.7 °F 78% 30.02 in 10.0 mi NE 3.5 mph - N/A   Clear
11:35 PM 32.0 °F - 26.1 °F 79% 30.02 in 10.0 mi Calm Calm - N/A   Clear
11:55 PM 32.0 °F 28.7 °F 26.6 °F 80% 30.01 in 10.0 mi NNE 3.5 mph - N/A   Clear